sat.trackr.live / text

‹ back to catalog

YAOGAN-17 01A

NORAD 39239 · 2013-046A

PAYLOAD ACTIVE UNKNOWN

§ Identity

Operator
Country
PRC
Launch date
2013-09-01
Launch site
JSC
Launch vehicle
Mass (kg)
RCS (m²)
2.59

External: N2YO · Heavens-Above · Gunter

§ Orbital elements

Epoch: 2026-09-20T05:04:26.947200Z

Period
107.02 min
Inclination
63.3842°
Eccentricity
0.0434637
Mean motion
13.45515079 rev/d
Perigee alt
764.3 km
Apogee alt
1,413.3 km
Semi-major
7,466.9 km
B*
9.0792e-5
RAAN
205.0958°
Arg perigee
12.3426°
Mean anomaly
348.7847°
Rev number
64,107

§ Raw data

YAOGAN-17 01A1 39239U 13046A   26263.21142300  .00000005  00000+0  90792-4 0  99972 39239  63.3842 205.0958 0434637  12.3426 348.7847 13.45515079641077

JSON: /api/v1/satellites/39239 · /tle

For live sub-satellite position, see the globe view (requires WebGL).

§ Visibility from observer

Set your observer location to see the next 7 days of passes ≥ 10°. The values pass through the URL so the page stays shareable.

No JS? Fill the form by hand. The geolocation button needs JavaScript.